Location: Berlijn
(52.5200°N, 13.4050°E)
Time: 23:25:07
(UTC+02:00)

N. Korean satellite - Visible Passes

Search period start: 19 September 2021 00:00
Search period end: 29 September 2021 00:00
Orbit: 448 x 499 km, 97.3° (Epoch: 19 September)

Date Brightness Start Highest point End Pass type
(mag) Time Alt. Az. Time Alt. Az. Time Alt. Az.
19 Sep 10.2 05:13:18 10° ENE 05:13:49 10° E 05:14:20 10° E visible
21 Sep 9.1 05:48:58 10° NE 05:51:55 25° E 05:54:52 10° SSE visible
22 Sep 9.9 05:22:09 10° ENE 05:23:55 13° E 05:25:42 10° ESE visible
24 Sep 8.6 05:58:43 10° NNE 06:01:55 31° E 06:05:09 10° SSE visible
25 Sep 9.7 05:31:34 10° NE 05:33:58 17° E 05:36:21 10° SE visible
27 Sep 8.1 06:08:29 10° NNE 06:11:53 40° E 06:15:18 10° S visible
28 Sep 9.4 05:41:09 10° NE 05:43:56 21° E 05:46:45 10° SE visible
